SCP
1 1 1 0 0 0 0 0 0 0 0 0 0 0 0 0 0 0 0 0 0 1 1 1 1 1 1 1 1 1 1 1 1 1 1 0 0 0 0 0 0 0 0 0 0 0 0 0 0
1 1 0 0 0 0 0 0 0 1 1 1 1 0 0 0 0 0 0 0 0 1 1 1 1 1 1 1 1 1 1 1 0 0 0 0 0 0 0 0 0 0 0 0 0 0 0 0 0
0 0 0 0 0 0 0 0 1 1 1 1 1 0 0 0 0 0 0 1 1 1 1 1 1 1 1 0 1 1 1 0 0 0 0 0 0 0 0 0 0 0 0 0 0 0 0 1 1
0 0 0 0 0 0 0 1 1 1 1 1 1 1 0 0 0 0 1 1 1 1 1 1 1 1 1 1 1 1 1 0 0 0 0 0 0 0 0 0 0 0 0 0 0 0 1 1 1
0 0 0 0 0 0 1 1 1 1 1 1 1 1 0 0 0 0 1 1 1 1 1 1 2 1 1 1 1 1 1 1 0 0 0 0 0 0 0 0 0 0 0 0 0 0 1 1 1
0 0 0 0 0 1 1 1 1 1 1 1 1 1 0 0 0 1 1 1 1 1 1 1 2 2 1 1 1 1 1 1 1 0 0 0 0 0 0 0 0 0 0 0 0 0 1 1 1
0 0 0 0 1 1 1 1 1 1 1 1 1 1 1 0 1 1 1 1 1 1 1 1 1 1 1 1 1 1 1 1 1 0 0 0 0 0 0 0 0 0 0 0 0 0 0 1 1
0 0 0 0 1 1 1 1 1 1 1 1 1 1 1 1 1 1 1 1 1 1 1 1 1 1 1 1 1 1 1 1 1 1 0 0 0 0 0 0 0 0 0 0 0 0 0 0 0
0 0 0 0 0 1 1 1 1 1 1 1 1 1 1 2 2 2 1 1 1 1 1 1 1 1 1 1 1 1 1 1 1 0 0 0 0 0 0 0 0 0 0 0 0 0 0 0 0
0 0 0 0 0 1 1 1 1 1 1 1 1 1 2 3 2 2 2 2 2 2 2 1 1 1 0 0 0 0 0 0 0 0 0 0 0 0 0 0 0 0 0 0 0 0 0 0 0
0 0 0 0 0 1 1 1 1 1 1 1 1 2 3 3 3 3 2 2 2 2 2 1 1 1 0 0 0 0 0 0 0 0 0 0 0 0 0 0 0 0 0 0 0 0 0 0 0
0 0 0 0 0 1 1 1 1 1 1 1 2 2 3 3 3 3 2 2 2 2 2 2 1 1 0 0 0 0 0 0 0 0 0 0 0 0 0 0 0 0 0 0 0 0 0 0 0
0 0 0 0 0 1 1 1 1 1 1 1 2 2 2 2 2 2 2 3 3 3 3 2 1 1 0 0 0 0 0 0 0 0 0 0 0 0 0 0 0 0 0 0 0 0 0 0 0
0 0 0 0 0 1 1 1 1 1 1 2 2 2 2 2 2 2 2 3 3 3 3 2 1 1 0 0 0 0 0 0 0 0 0 0 0 0 0 0 0 0 0 0 0 0 0 0 0
0 0 0 0 0 0 1 1 1 1 2 2 2 2 2 2 2 2 2 2 3 3 3 2 2 1 1 0 0 0 0 0 0 0 0 0 0 0 0 0 0 0 0 0 0 0 0 0 0
0 0 0 0 0 0 0 1 1 1 2 2 2 2 2 2 2 3 2 2 2 3 2 2 2 1 1 0 0 0 0 0 0 0 0 0 0 0 0 0 0 0 0 0 0 0 0 0 0
0 0 0 0 0 0 0 0 1 1 1 2 2 1 1 2 2 2 2 2 2 2 2 2 2 1 1 0 0 0 0 1 1 1 1 0 0 0 1 1 0 0 0 0 0 0 0 0 0
0 0 0 0 0 0 0 0 1 1 1 1 1 1 1 1 1 1 2 2 2 2 2 2 2 1 1 1 0 0 0 1 1 1 1 1 1 1 1 1 1 0 0 0 0 0 0 0 0
0 0 0 0 0 0 0 0 1 1 1 1 1 1 1 1 1 1 1 2 2 2 2 2 2 1 1 1 1 1 1 1 1 1 1 1 1 1 1 1 1 1 0 0 0 0 0 0 0
0 0 0 0 0 0 0 0 0 1 1 1 1 1 1 1 1 1 2 2 2 2 2 2 1 1 1 1 1 1 1 1 1 1 1 1 1 1 1 1 1 1 1 1 1 1 1 1 1
0 0 0 0 0 0 0 0 0 1 1 2 2 1 1 1 2 2 3 3 4 4 3 2 1 1 1 1 1 1 1 1 1 1 1 1 1 1 1 1 1 1 1 1 1 1 1 1 1
0 0 0 0 0 0 0 0 0 0 1 2 1 1 1 1 2 3 3 4 4 4 4 3 1 1 1 1 1 1 1 1 1 1 1 1 1 1 1 1 1 1 1 1 1 1 0 0 0
0 0 0 0 0 0 0 0 0 0 1 1 1 1 1 2 2 3 3 3 3 3 2 2 2 1 1 1 1 1 1 1 1 1 1 1 1 1 1 1 1 1 1 0 0 0 0 0 0
0 0 0 0 0 0 0 0 0 0 0 1 1 1 1 2 3 3 3 3 2 2 1 1 2 2 2 2 2 1 1 1 1 1 1 1 1 1 1 1 1 1 1 0 0 0 0 0 0
0 0 0 0 0 0 0 0 0 0 0 0 1 1 1 2 2 3 3 3 3 2 2 2 2 2 3 3 2 2 2 1 1 1 1 1 1 1 1 1 1 1 1 0 0 0 0 0 0
0 0 0 0 0 0 0 0 0 0 0 1 1 1 1 2 2 2 3 3 3 2 2 2 3 3 3 3 2 2 2 2 2 2 2 1 1 1 1 1 1 1 1 1 1 0 0 0 0
0 0 0 0 0 0 0 0 0 1 1 1 1 1 1 2 2 2 2 3 3 3 3 3 4 4 4 3 3 2 2 2 2 2 2 1 1 1 1 1 1 1 1 1 1 1 1 0 0
0 0 0 0 0 0 0 0 0 1 1 1 2 2 2 2 2 2 2 3 3 3 4 4 5 5 4 4 3 3 2 2 2 2 2 1 1 1 1 1 1 1 1 1 1 1 1 1 1
0 0 0 0 0 0 0 0 1 1 1 2 2 2 2 2 3 3 3 3 3 4 4 4 4 5 4 4 3 3 2 2 2 2 2 1 1 1 1 1 1 1 1 1 1 1 1 1 1
0 0 0 0 0 0 0 0 1 1 2 2 2 2 2 2 3 3 3 3 3 3 4 4 4 4 4 4 3 3 2 2 2 2 2 2 1 1 1 1 1 1 2 2 1 1 1 1 1
Wind_Speed
2 2 3 2 6 7 4 4 2 3 3 3 6 7 7 5 2 4 2 5 6 5 4 8 12 13 14 14 14 14 15 15 15 16 15 16 16 16 16 16 16 16 16 16 16 16 16 16 16
2 2 2 5 7 4 3 3 4 4 4 5 7 7 7 6 5 7 3 4 6 5 4 7 12 13 13 13 13 13 14 14 14 15 15 15 15 15 16 16 15 16 16 16 16 16 16 15 15
2 1 4 6 5 3 3 1 5 6 4 4 5 6 5 4 5 4 4 8 6 5 4 7 13 13 13 13 13 13 14 14 14 14 14 14 15 15 15 15 15 15 15 15 16 15 15 14 14
2 4 6 7 4 0 4 4 6 6 6 6 5 6 5 4 4 5 9 9 7 5 4 7 12 12 13 13 12 13 13 13 13 13 13 14 14 14 14 14 14 14 14 15 15 14 14 13 12
4 5 7 5 3 3 3 5 3 5 4 5 5 6 4 4 8 11 9 8 7 5 4 6 12 12 12 12 12 12 12 12 12 13 12 13 13 13 13 13 13 13 14 14 14 13 12 12 11
5 6 6 3 3 3 3 3 3 6 6 5 5 5 3 4 9 9 8 7 6 5 4 5 11 12 11 11 11 11 12 12 11 12 11 12 12 12 12 12 12 12 12 12 12 11 11 10 10
5 5 4 3 3 2 3 3 3 5 6 4 4 6 3 4 6 8 7 6 5 5 4 3 4 7 10 11 10 11 11 11 10 11 10 11 11 11 11 11 11 11 11 11 10 10 10 9 9
5 6 4 2 4 3 4 3 4 5 5 5 5 7 6 6 8 8 7 6 5 4 4 3 4 4 4 5 9 10 10 10 9 10 10 10 10 9 9 8 9 9 9 9 9 9 8 8 8
4 6 2 4 5 4 6 5 3 4 6 3 3 5 7 14 13 10 7 5 5 5 3 3 4 4 4 3 6 7 8 8 7 6 9 7 4 4 4 6 8 8 8 7 7 7 7 7 6
5 4 4 4 5 6 7 6 6 5 4 3 6 9 15 15 13 12 10 10 8 7 5 3 3 3 3 3 3 2 3 3 3 3 4 3 3 2 3 4 6 6 6 6 6 6 6 5 3
3 3 2 1 4 7 8 6 5 8 4 6 11 16 17 15 12 11 10 9 8 7 6 4 4 3 3 2 2 2 2 2 2 3 3 3 2 2 2 2 2 3 4 3 4 4 2 2 2
2 0 2 2 4 7 8 7 5 6 5 8 15 18 18 16 13 12 11 9 7 6 6 5 5 4 3 2 2 2 1 1 1 2 3 2 1 1 1 1 1 2 1 2 2 1 1 1 1
2 1 1 3 6 6 6 5 4 2 5 13 15 15 15 14 11 8 7 7 6 7 6 6 5 5 4 3 2 2 2 2 2 1 2 2 2 1 1 0 1 1 1 1 1 1 1 1 1
1 2 3 3 5 4 6 3 3 3 11 14 15 14 13 13 11 8 7 7 7 7 7 6 6 6 5 3 3 2 2 2 2 2 2 3 2 2 2 1 0 0 0 0 0 0 0 0 0
2 5 6 4 3 3 6 2 2 6 12 13 13 13 12 11 11 11 11 10 9 8 7 6 7 6 5 5 4 3 3 3 2 2 2 3 3 3 2 2 1 1 1 1 0 0 0 0 0
5 6 3 3 2 3 6 4 3 9 13 12 11 12 11 10 11 11 10 9 8 8 7 7 7 7 6 5 4 3 3 3 3 3 2 3 3 3 3 2 2 2 1 1 1 1 0 0 0
6 3 1 2 1 2 3 4 4 9 11 11 10 10 11 9 9 9 10 10 10 9 8 8 6 7 6 5 3 3 3 3 3 3 3 3 4 4 3 3 2 2 1 1 1 1 1 1 1
2 2 1 2 2 2 2 3 4 9 11 10 10 9 9 12 12 10 9 9 8 8 8 7 6 6 5 4 2 1 2 2 2 3 3 4 4 4 3 3 3 2 2 2 1 1 1 1 1
5 3 2 3 1 2 3 3 4 8 8 9 9 10 11 12 9 8 8 8 8 7 7 7 7 6 5 3 3 2 2 2 2 3 4 4 4 4 4 3 3 3 3 3 3 2 1 1 0
4 2 0 2 2 2 1 3 2 8 12 11 11 12 11 9 7 8 9 9 9 9 8 8 8 8 7 5 3 2 2 2 2 2 3 4 4 4 4 4 3 3 2 2 3 2 1 1 1
2 4 3 1 3 4 2 4 2 3 4 6 7 8 8 11 11 10 10 11 10 11 10 9 8 7 7 5 3 2 2 1 1 1 2 3 4 4 4 4 3 3 3 3 3 3 3 2 1
3 4 5 3 3 2 2 2 6 3 4 7 9 9 11 10 9 9 10 11 11 11 10 8 8 7 6 6 5 5 4 4 4 3 2 3 4 4 4 4 4 4 3 4 4 3 3 3 2
5 2 4 3 4 2 2 1 8 1 4 10 11 11 11 10 11 11 12 11 10 10 9 8 8 7 6 6 7 6 4 4 2 2 3 3 3 3 4 4 4 4 3 4 3 3 3 3 3
5 7 7 6 5 1 2 3 7 4 8 7 9 10 10 10 11 10 9 8 8 8 7 7 7 7 6 7 6 7 7 5 4 3 3 3 2 2 4 4 4 4 3 4 4 3 4 3 3
5 7 5 4 3 5 2 2 9 8 7 8 9 9 9 10 10 10 9 10 9 9 9 8 8 7 7 7 7 7 7 6 6 5 4 4 3 3 4 4 4 4 4 4 3 3 3 4 4
5 10 9 6 5 4 1 4 9 7 5 5 6 5 5 7 9 10 11 11 11 11 9 9 9 8 7 8 7 6 5 4 4 4 4 4 4 4 3 4 4 4 4 4 3 3 3 3 3
7 4 7 8 3 0 4 6 9 4 4 4 2 2 4 7 8 9 9 9 10 10 10 10 9 7 7 7 6 5 5 5 5 4 3 3 3 3 3 3 3 3 3 3 3 2 3 2 2
7 10 7 7 6 2 4 4 5 5 6 5 3 2 3 3 4 6 7 8 8 8 8 8 8 8 7 6 6 5 5 5 4 3 3 3 2 2 2 2 2 2 2 3 2 2 2 2 2
5 5 6 6 6 7 2 7 6 7 6 5 4 2 2 3 4 5 5 6 7 6 7 7 6 6 5 6 5 4 4 3 3 3 3 3 2 2 2 2 2 2 1 1 2 2 2 2 1
6 8 9 7 4 4 5 8 5 4 4 3 2 1 1 3 4 5 6 6 6 6 6 6 6 6 5 5 4 4 3 3 3 2 2 2 2 2 2 2 2 1 1 1 2 2 2 2 1
Wind_Direction
244 152 136 91 57 50 37 8 59 68 54 50 77 83 87 65 82 125 113 123 118 114 110 115 113 109 106 103 102 102 102 102 101 102 103 103 103 103 102 102 102 101 100 100 100 100 101 102 103
167 149 95 62 73 63 14 8 72 83 133 118 77 71 71 63 65 100 118 125 119 119 112 122 118 114 111 108 106 105 104 104 104 104 103 103 103 103 103 103 103 102 102 101 101 102 102 103 104
161 124 78 67 73 121 131 111 114 108 92 76 77 64 70 90 111 121 140 128 114 114 114 129 121 118 116 113 110 109 108 108 107 106 106 106 105 104 104 104 104 104 104 103 103 103 103 104 104
102 52 54 65 61 75 154 156 134 112 66 53 84 71 68 90 122 128 131 127 119 116 118 130 126 122 119 117 114 112 111 110 110 109 108 107 106 105 105 105 104 104 104 104 103 103 103 104 106
64 71 59 52 41 49 108 139 123 101 84 70 82 83 53 39 103 120 126 127 126 119 119 129 129 127 124 120 118 116 114 113 112 111 111 110 109 108 107 107 106 106 106 105 103 101 100 100 104
57 64 75 71 59 69 99 95 88 89 94 91 83 87 61 102 117 127 125 122 122 120 116 125 133 132 128 123 121 120 119 117 115 113 112 110 109 109 109 109 109 108 107 106 104 102 101 101 105
91 84 105 123 110 120 147 95 98 112 108 110 107 96 100 128 126 124 117 114 113 109 108 105 121 130 132 128 126 125 122 121 119 117 115 112 111 111 111 111 112 111 110 109 107 104 102 105 111
114 96 86 118 141 162 142 103 108 116 106 117 112 132 158 162 132 116 109 106 109 106 105 102 99 100 110 125 134 132 129 126 124 122 120 116 113 112 113 112 115 114 112 110 108 105 103 104 113
86 76 126 182 167 165 140 125 131 94 116 127 111 135 145 139 133 129 128 130 142 145 122 115 112 109 112 126 142 135 133 129 123 121 118 101 76 79 97 114 116 114 112 110 106 102 98 92 95
81 107 206 198 172 154 145 140 150 124 133 103 88 101 127 141 147 152 160 166 169 171 170 150 137 131 126 132 105 90 96 98 88 80 88 81 76 74 89 100 114 113 108 105 98 90 87 82 74
101 153 207 173 153 134 136 143 140 135 182 185 154 146 149 153 159 166 173 176 178 174 176 168 161 148 135 114 114 94 88 91 91 94 95 89 76 65 57 52 66 70 81 70 70 68 71 83 93
98 203 164 150 138 133 145 144 137 171 207 161 151 151 156 164 172 178 179 181 174 172 184 176 166 157 153 139 132 127 124 120 121 124 122 115 106 89 74 58 50 51 57 66 60 65 62 69 97
59 359 11 122 127 128 122 130 141 176 127 130 140 151 164 172 179 184 181 176 172 181 186 177 170 174 167 155 164 159 164 159 157 152 156 153 154 152 135 103 59 49 64 75 70 60 50 46 57
37 39 28 81 109 120 124 109 105 153 133 137 151 163 173 177 176 175 177 181 184 187 189 179 180 183 171 173 180 175 176 175 170 186 191 178 170 168 165 168 179 238 201 153 104 47 57 316 279
59 62 43 42 89 120 111 79 191 158 144 151 164 171 178 182 182 187 188 188 188 187 185 184 186 181 181 187 192 185 180 177 187 199 200 193 187 181 176 183 202 217 201 169 117 54 39 263 278
50 62 54 323 70 115 127 207 203 157 156 165 174 178 184 192 195 195 190 189 186 182 184 193 192 181 188 192 192 188 184 183 194 196 195 202 199 188 178 190 215 211 186 169 172 175 183 273 264
37 87 123 308 13 122 144 215 191 166 168 177 183 187 191 198 205 200 192 191 188 186 183 186 187 180 186 189 187 193 186 191 193 191 196 200 199 192 188 204 216 200 189 194 213 183 191 226 246
162 132 181 239 261 131 178 236 188 178 181 188 191 194 198 206 210 199 193 191 188 185 182 181 180 179 173 168 160 166 181 198 190 196 202 196 195 192 190 209 210 192 194 201 202 209 213 219 234
148 143 195 249 266 156 225 247 201 183 193 199 202 204 207 215 208 191 192 187 180 180 181 181 178 175 167 162 167 172 197 202 205 210 206 200 201 195 196 215 202 193 203 213 199 189 209 235 177
128 126 220 322 13 120 248 295 225 191 202 205 206 209 212 212 199 193 189 186 186 185 187 185 185 182 183 181 172 168 162 188 208 213 204 200 203 203 209 209 207 199 206 217 205 183 177 216 165
152 172 191 200 14 34 68 338 287 235 223 226 224 218 215 211 206 197 192 192 190 191 192 192 191 191 191 176 146 127 107 98 164 212 211 204 199 201 209 209 209 207 199 212 212 193 188 208 216
210 210 171 142 94 325 83 271 285 240 233 231 231 220 217 214 204 199 195 194 195 197 189 187 188 190 190 176 174 175 180 195 208 202 205 213 206 208 208 208 207 212 212 216 220 200 194 189 221
191 136 126 121 124 65 24 142 286 309 246 244 236 227 220 207 199 199 199 196 195 190 186 187 184 187 186 184 189 186 196 201 194 189 199 215 217 214 214 209 209 214 218 222 221 202 201 199 212
131 75 58 50 72 71 235 163 275 241 229 248 238 227 217 204 199 200 196 183 186 184 184 182 180 188 185 184 192 196 202 200 193 201 205 212 217 220 218 210 210 215 218 221 220 212 208 212 219
103 93 50 19 23 249 264 186 249 253 242 238 240 228 216 200 195 193 187 182 182 183 186 185 184 192 188 188 198 202 203 199 204 208 209 207 211 218 222 214 213 214 216 217 211 209 219 213 219
158 136 151 175 203 267 316 231 255 268 276 260 244 231 206 192 193 194 191 185 184 184 186 185 189 195 191 196 205 204 200 198 209 209 206 209 216 222 218 211 214 216 213 215 203 205 217 215 225
131 149 151 125 144 124 281 287 300 306 324 313 278 208 196 195 192 192 187 180 181 183 188 186 189 193 194 198 198 200 199 203 209 206 203 211 219 223 218 210 208 210 209 210 200 206 220 212 226
137 141 108 116 136 204 291 283 260 283 289 298 290 242 212 183 184 183 179 174 176 182 182 181 186 192 195 195 198 201 199 205 203 192 199 206 212 211 198 194 190 196 205 206 194 196 213 203 229
111 100 106 110 142 148 207 267 234 236 251 261 269 258 205 173 170 165 165 165 165 167 171 175 180 186 190 191 192 192 189 191 181 181 193 193 185 179 181 178 176 178 180 170 165 178 176 176 213
148 156 144 143 175 157 161 261 277 255 259 239 261 302 120 139 140 137 144 146 152 158 161 164 170 181 187 179 170 175 169 164 163 173 177 164 161 152 159 151 146 143 136 135 150 167 165 150 150